Погода в Калуге

Россия / Саратовская область     51°22′18″N   47°10′00″E
темп.,
°C
ветер,
м/с
пор.,
м/с
влажн.,
%
обл.,
%
осадки,
мм/ч
давл.,
гПа
погр.,
м
14 апреля, ср
ср1401:00+11вюв410555 0.0 1028170
04:00+9вюв410634 0.0 1027148
07:00+9вюв511721 0.0 1026221
10:00+15вюв711480 0.0 1025603
13:00+19вюв79300 0.0 10241271
16:00+20вюв78263 0.0 10221630
19:00+17вюв59400 0.0 1021212
22:00+13в411565 0.0 1021177
15 апреля, чт
чт1501:00+12вюв410650 0.0 1020148
04:00+11в48672 0.0 1019112
07:00+10в486718 0.0 1018139
10:00+16вюв574699 0.0 1018438
13:00+21юв56287 0.0 10171046
16:00+22вюв672597 0.0 10162406
19:00+18вюв483796 0.0 1016180
22:00+15в4848100 0.0 1016135
16 апреля, пт
пт1601:00+13в3550100 0.0 101569
04:00+12св4659100 0.0 1015108
07:00+11св4865100 0.0 1015157
10:00+15всв5748100 0.0 1016368
13:00+19всв5738100 0.0 1016812
16:00+20всв5633100 0.0 10171380
19:00+17всв3547100 0.0 101778
22:00+14всв3357100 0.0 101829
17 апреля, сб
сб1701:00+12св3560100 0.0 101882
04:00+10св476745 0.0 1018116
07:00+10св510719 0.0 1019220
10:00+15всв78585 0.0 1020499
13:00+19всв674587 0.0 10201230
16:00+20всв65399 0.0 10192339
19:00+17св610505 0.0 1019490
22:00+13всв6136435 0.0 1021484
18 апреля, вс
вс1801:00+11всв713625 0.0 1021358
04:00+9св5106494 0.0 1022336
07:00+7св6126687 0.0 1022337
10:00+12всв8104710 0.0 1022641
13:00+15всв78405 0.0 10211214
16:00+16всв77365 0.0 10211604
19:00+14св6104246 0.0 1021691
22:00+11всв6125492 0.0 1023463